Flag for Lithuania Weather past 2 weeks in Kaunas, Lithuania

Now
34 °F

Clear.


Feels Like: 31 °F
Forecast: 43 / 59 °F
Wind: 3 mph from West

Location: Kaunas

Current Time: Sep 24, 2014 at 5:49:28 AM

Latest Report: Sep 24, 2014 at 5:20 AM


Visibility: 10 mi

Pressure: 29.92 "Hg

Humidity: 70%

Dew point: 25 °F

Location of KaunasLocation

Historic Weather in Kaunas — Graph

°F

Kaunas temperature yesterday

Maximum temperature yesterday: 54 °F (at 12:20 AM)
Minimum temperature yesterday: 39 °F (at 10:50 PM)
Average temperature yesterday: 48 °F

Past Weeks' High & Low Weather Summary

 TemperatureHumidityPressure
High77 °F (Sep 12, 3:20 PM)100% (Sep 11, 5:20 AM)30.39 "Hg (Sep 11, 5:20 AM)
Low34 °F (Sep 24, 4:20 AM)30% (Sep 18, 1:50 PM)29.53 "Hg (Sep 22, 11:50 AM)
Average56 °F72%30.08 "Hg
* Reported Sep 9 4:20 AM — Sep 24 4:20 AM, Kaunas, Weather by CustomWeather, © 2014

Note: Actual official high and low records may vary slightly from our data, if they occured in-between our weather recording intervals... More about our weather records

Advertising

Kaunas weather history for previous 24 hours

 ConditionsComfort  
Time TempWeatherWind HumidityBarometerVisibility
4:20 AM
Sep 24
34 °FPassing clouds.7 mph70%29.89 "HgN/A
3:50 AM36 °FPassing clouds.6 mph65%29.89 "HgN/A
3:20 AM36 °FChilly.5 mph65%29.89 "HgN/A
2:50 AM36 °FChilly.5 mph65%29.89 "HgN/A
2:20 AM36 °FChilly.5 mph70%29.89 "HgN/A
1:50 AM36 °FChilly.7 mph65%29.89 "HgN/A
1:20 AM37 °FChilly.5 mph60%29.86 "HgN/A
12:50 AM37 °FChilly.6 mph60%29.86 "HgN/A
12:20 AM39 °FChilly.7 mph56%29.86 "HgN/A
11:50 PM
Sep 23
39 °FPassing clouds.6 mph56%29.83 "HgN/A
11:20 PM39 °FPassing clouds.6 mph61%29.83 "HgN/A
10:50 PM39 °FPassing clouds.7 mph61%29.83 "HgN/A
10:20 PM41 °FPassing clouds.7 mph61%29.80 "HgN/A
9:50 PM41 °FPassing clouds.6 mph66%29.80 "HgN/A
9:20 PM41 °FPassing clouds.7 mph66%29.80 "HgN/A
8:50 PM43 °FPassing clouds.7 mph61%29.77 "HgN/A
8:20 PM43 °FPassing clouds.6 mph57%29.77 "HgN/A
7:50 PM45 °FPassing clouds.7 mph53%29.77 "HgN/A
7:20 PM46 °FPartly sunny.6 mph53%29.74 "HgN/A
6:50 PM46 °FBroken clouds.3 mph57%29.74 "HgN/A
6:20 PM48 °FMostly cloudy.3 mph58%29.71 "HgN/A
5:50 PM46 °FBroken clouds.5 mph66%29.71 "HgN/A
5:20 PM48 °FBroken clouds.5 mph62%29.71 "HgN/A
4:50 PM50 °FMostly cloudy.6 mph54%29.68 "HgN/A
4:20 PM50 °FMostly cloudy.5 mph58%29.68 "HgN/A
3:50 PM48 °FMostly cloudy.7 mph62%29.68 "HgN/A
3:20 PM48 °FMostly cloudy.7 mph71%29.65 "HgN/A
2:50 PM48 °FLight rain. Mostly cloudy.10 mph66%29.65 "HgN/A
2:20 PM50 °FMostly cloudy.9 mph62%29.65 "HgN/A
1:20 PM48 °FOvercast.7 mph66%29.65 "HgN/A
12:50 PM48 °FOvercast.9 mph66%29.62 "HgN/A
12:20 PM50 °FMostly cloudy.7 mph67%29.62 "HgN/A
11:50 AM50 °FOvercast.8 mph67%29.59 "HgN/A
11:20 AM50 °FMostly cloudy.7 mph71%29.59 "HgN/A
10:50 AM50 °FOvercast.8 mph71%29.56 "HgN/A
10:20 AM50 °FMostly cloudy.8 mph76%29.56 "HgN/A
9:50 AM50 °FMostly cloudy.8 mph76%29.56 "HgN/A
9:20 AM52 °FLight rain. Mostly cloudy.6 mph77%29.53 "HgN/A
8:50 AM50 °FMostly cloudy.6 mph82%29.53 "HgN/A
8:20 AM50 °FLow clouds.6 mph82%29.53 "HgN/A
7:50 AM48 °FMostly cloudy.8 mph87%29.53 "HgN/A
7:20 AM48 °FMostly cloudy.9 mph87%29.53 "HgN/A
6:50 AM48 °FLow clouds.8 mph87%29.53 "HgN/A
6:20 AM48 °FLight rain. Low clouds.8 mph82%29.53 "Hg4 mi
5:50 AM48 °FLight rain. Fog.13 mph87%29.53 "Hg3 mi
5:20 AM50 °FLow clouds.8 mph82%29.53 "HgN/A
Weather by CustomWeather, © 2014

See weather overviewHow to use our weather pages